St. Cloud, MN

7:38 AM CDT on August 17, 2017 (GMT -0500)
Saint Cloud Regional

Weather History for KSTC - December, 2012

Change the Weather History Date:

Thursday, December 6, 2012

  Actual Average Record
Temperature  
Mean Temperature 33 °F 19 °F  
Max Temperature 44 °F 28 °F 63 °F (1939)
Min Temperature 21 °F 11 °F -27 °F (1972)
Degree Days  
Heating Degree Days 32 46  
Month to date heating degree days 189 269  
Since 1 July heating degree days 2011 2194  
Cooling Degree Days 0 0  
Month to date cooling degree days 0 0  
Year to date cooling degree days 739 465  
Moisture  
Dew Point 26 °F    
Average Humidity 68    
Maximum Humidity 84    
Minimum Humidity 51    
Precipitation  
Precipitation 0.02 in 0.03 in 0.49 in (1935)
Month to date precipitation 0.03 0.18  
Year to date precipitation 23.54 27.09  
Snow  
Snow 0.00 in 0.30 in 4.30 in (1969)
Month to date snowfall 0.0 1.9  
Since 1 July snowfall 3.2 11.1  
Snow Depth 0.00 in    
Sea Level Pressure  
Sea Level Pressure 29.90 in    
Wind  
Wind Speed 11 mph (West)    
Max Wind Speed 22 mph    
Max Gust Speed 28 mph    
Visibility 10 miles    
Events Rain    
T = Trace of Precipitation, MM = Missing Value Source: NWS Daily Summary

Daily Weather History Graph

Daily Weather History Graph

Search for Another Location

Airport or City:

Trip Planner

Search our weather history database for the weather conditions in past years. The results will help you decide how hot, cold, wet, or windy it might be!

Date:

Astronomy

Dec. 06, 2012 Rise Set
Actual Time 7:42 AM CST 4:32 PM CST
Civil Twilight 7:08 AM CST 5:06 PM CST
Nautical Twilight 6:30 AM CST 5:43 PM CST
Astronomical Twilight 5:55 AM CST 6:19 PM CST
Moon No Moon Rise 12:17 PM CST (12/6)
Length of Visible Light 9h 58m
Length of Day
8h 50m
Waning Gibbous, 49% of the Moon is Illuminated
Dec 6
Waning Gibbous
Dec 13
New
Dec 19
First Quarter
Dec 28
Full
Jan 4
Last Quarter

Hourly Weather History & Observations

Time (CST) Temp. Windchill Dew Point Humidity Pressure Visibility Wind Dir Wind Speed Gust Speed Precip Events Conditions
12:53 AM 41.0 °F 33.1 °F 26.1 °F 55% 29.83 in 10.0 mi SSE 15.0 mph 21.9 mph N/A   Overcast
1:53 AM 42.1 °F 36.6 °F 28.0 °F 58% 29.81 in 10.0 mi SSE 9.2 mph - N/A   Overcast
2:53 AM 44.1 °F 38.1 °F 28.9 °F 55% 29.81 in 10.0 mi South 11.5 mph - N/A   Overcast
3:53 AM 44.1 °F 38.6 °F 30.0 °F 58% 29.79 in 10.0 mi South 10.4 mph - N/A   Overcast
4:53 AM 41.0 °F 36.4 °F 34.0 °F 76% 29.79 in 10.0 mi South 6.9 mph - 0.01 in Rain Light Rain
5:53 AM 39.9 °F 35.1 °F 34.0 °F 79% 29.79 in 10.0 mi SSW 6.9 mph - 0.01 in   Mostly Cloudy
6:53 AM 37.0 °F 31.6 °F 32.0 °F 82% 29.78 in 10.0 mi South 6.9 mph - N/A   Clear
7:53 AM 37.9 °F 28.9 °F 30.0 °F 73% 29.82 in 10.0 mi WNW 16.1 mph - N/A   Clear
8:53 AM 37.0 °F 29.3 °F 28.9 °F 73% 29.84 in 10.0 mi WNW 11.5 mph - N/A   Clear
9:48 AM 37.4 °F 28.5 °F 30.2 °F 75% 29.81 in 10.0 mi WNW 15.0 mph - N/A   Overcast
9:53 AM 37.9 °F 29.2 °F 30.0 °F 73% 29.86 in 10.0 mi WNW 15.0 mph 20.7 mph N/A   Overcast
10:53 AM 37.0 °F 27.4 °F 28.0 °F 70% 29.89 in 10.0 mi NW 17.3 mph 25.3 mph N/A   Overcast
11:53 AM 39.0 °F 32.8 °F 27.0 °F 62% 29.88 in 10.0 mi WNW 9.2 mph - N/A   Partly Cloudy
12:53 PM 39.9 °F 31.8 °F 27.0 °F 60% 29.89 in 10.0 mi WNW 15.0 mph 20.7 mph N/A   Clear
1:53 PM 39.9 °F 31.8 °F 26.1 °F 58% 29.90 in 10.0 mi WNW 15.0 mph 21.9 mph N/A   Clear
2:53 PM 39.0 °F 30.6 °F 25.0 °F 57% 29.91 in 10.0 mi WNW 15.0 mph - N/A   Clear
3:53 PM 36.0 °F 28.0 °F 24.1 °F 62% 29.94 in 10.0 mi WNW 11.5 mph - N/A   Clear
4:53 PM 34.0 °F 26.6 °F 24.1 °F 67% 29.95 in 10.0 mi NW 9.2 mph - N/A   Clear
5:53 PM 30.0 °F 22.4 °F 23.0 °F 75% 29.98 in 10.0 mi NW 8.1 mph - N/A   Clear
6:53 PM 30.0 °F 19.5 °F 21.0 °F 69% 30.01 in 10.0 mi NW 13.8 mph - N/A   Clear
7:53 PM 27.0 °F 17.3 °F 19.0 °F 72% 30.03 in 10.0 mi NW 10.4 mph - N/A   Clear
8:53 PM 24.1 °F 17.0 °F 18.0 °F 77% 30.04 in 10.0 mi NW 5.8 mph - N/A   Clear
9:53 PM 23.0 °F 17.0 °F 17.1 °F 78% 30.04 in 10.0 mi NW 4.6 mph - N/A   Clear
10:53 PM 21.9 °F 14.5 °F 17.1 °F 82% 30.04 in 10.0 mi NW 5.8 mph - N/A   Clear
11:53 PM 21.9 °F 15.7 °F 17.1 °F 82% 30.05 in 10.0 mi WNW 4.6 mph - N/A   Clear